Time,TemperatureF,DewpointF,PressureIn,WindDirection,WindDirectionDegrees,WindSpeedMPH,WindSpeedGustMPH,Humidity,HourlyPrecipIn,Conditions,Clouds,dailyrainin,SoftwareType,DateUTC
2013-01-19 00:04:00,17.0,7.0,30.38,NNW,330,0.0,1.0,64,0.00,,,0.00,,2013-01-19 05:04:00,
2013-01-19 00:13:00,17.0,7.0,30.38,NNW,330,0.0,1.0,64,0.00,,,0.00,,2013-01-19 05:13:00,
2013-01-19 00:23:00,18.0,7.0,30.38,East,98,0.0,2.0,62,0.00,,,0.00,,2013-01-19 05:23:00,
2013-01-19 00:33:00,18.0,8.0,30.38,NE,34,0.0,1.0,63,0.00,,,0.00,,2013-01-19 05:33:00,
2013-01-19 00:43:00,18.0,8.0,30.38,NE,34,0.0,1.0,63,0.00,,,0.00,,2013-01-19 05:43:00,
2013-01-19 00:53:00,19.0,8.0,30.36,East,101,0.0,2.0,62,0.00,,,0.00,,2013-01-19 05:53:00,
2013-01-19 01:03:00,19.0,8.0,30.36,WSW,253,0.0,1.0,61,0.00,,,0.00,,2013-01-19 06:03:00,
2013-01-19 01:12:00,19.0,8.0,30.36,WSW,253,0.0,1.0,61,0.00,,,0.00,,2013-01-19 06:12:00,
2013-01-19 01:23:00,20.0,8.0,30.34,ESE,108,0.0,2.0,60,0.00,,,0.00,,2013-01-19 06:23:00,
2013-01-19 01:33:00,20.0,8.0,30.35,WNW,285,0.0,2.0,60,0.00,,,0.00,,2013-01-19 06:33:00,
2013-01-19 01:43:00,20.0,8.0,30.35,WNW,285,0.0,2.0,60,0.00,,,0.00,,2013-01-19 06:43:00,
2013-01-19 01:53:00,20.0,8.0,30.34,WSW,249,0.0,1.0,60,0.00,,,0.00,,2013-01-19 06:53:00,
2013-01-19 02:02:00,21.0,9.0,30.34,West,276,0.0,1.0,60,0.00,,,0.00,,2013-01-19 07:02:00,
2013-01-19 02:12:00,21.0,9.0,30.34,West,276,0.0,1.0,60,0.00,,,0.00,,2013-01-19 07:12:00,
2013-01-19 02:22:00,21.0,9.0,30.34,East,98,0.0,2.0,60,0.00,,,0.00,,2013-01-19 07:22:00,
2013-01-19 02:33:00,21.0,9.0,30.33,ESE,114,1.0,2.0,60,0.00,,,0.00,,2013-01-19 07:33:00,
2013-01-19 02:43:00,21.0,9.0,30.33,ESE,114,1.0,2.0,60,0.00,,,0.00,,2013-01-19 07:43:00,
2013-01-19 02:53:00,21.0,10.0,30.32,ESE,104,0.0,1.0,61,0.00,,,0.00,,2013-01-19 07:53:00,
2013-01-19 03:02:00,21.0,10.0,30.32,ESE,104,0.0,1.0,61,0.00,,,0.00,,2013-01-19 08:02:00,
2013-01-19 03:12:00,21.0,10.0,30.32,ESE,104,0.0,1.0,61,0.00,,,0.00,,2013-01-19 08:12:00,
2013-01-19 03:22:00,21.0,10.0,30.30,SW,236,0.0,1.0,63,0.00,,,0.00,,2013-01-19 08:22:00,
2013-01-19 03:32:00,21.0,10.0,30.30,ESE,105,0.0,1.0,63,0.00,,,0.00,,2013-01-19 08:32:00,
2013-01-19 03:43:00,21.0,10.0,30.30,ESE,105,0.0,1.0,63,0.00,,,0.00,,2013-01-19 08:43:00,
2013-01-19 03:53:00,22.0,12.0,30.28,West,269,0.0,1.0,65,0.00,,,0.00,,2013-01-19 08:53:00,
2013-01-19 04:02:00,22.0,12.0,30.27,West,269,0.0,1.0,66,0.00,,,0.00,,2013-01-19 09:02:00,
2013-01-19 04:12:00,22.0,12.0,30.27,West,269,0.0,1.0,66,0.00,,,0.00,,2013-01-19 09:12:00,
2013-01-19 04:23:00,23.0,13.0,30.27,SE,145,1.0,3.0,64,0.00,,,0.00,,2013-01-19 09:23:00,
2013-01-19 04:33:00,24.0,13.0,30.26,North,360,1.0,3.0,63,0.00,,,0.00,,2013-01-19 09:33:00,
2013-01-19 04:43:00,24.0,13.0,30.26,North,360,1.0,3.0,63,0.00,,,0.00,,2013-01-19 09:43:00,
2013-01-19 04:53:00,25.0,13.0,30.25,ESE,120,1.0,3.0,61,0.00,,,0.00,,2013-01-19 09:53:00,
2013-01-19 05:02:00,25.0,13.0,30.24,SE,124,1.0,3.0,61,0.00,,,0.00,,2013-01-19 10:02:00,
2013-01-19 05:12:00,25.0,13.0,30.24,SE,124,1.0,3.0,61,0.00,,,0.00,,2013-01-19 10:12:00,
2013-01-19 05:23:00,25.0,14.0,30.23,SW,232,1.0,3.0,62,0.00,,,0.00,,2013-01-19 10:23:00,
2013-01-19 05:32:00,25.0,14.0,30.22,ESE,113,1.0,2.0,63,0.00,,,0.00,,2013-01-19 10:32:00,
2013-01-19 05:43:00,25.0,14.0,30.22,ESE,113,1.0,2.0,63,0.00,,,0.00,,2013-01-19 10:43:00,
2013-01-19 05:53:00,26.0,15.0,30.23,SSE,155,0.0,3.0,63,0.00,,,0.00,,2013-01-19 10:53:00,
2013-01-19 06:03:00,26.0,15.0,30.22,ESE,108,1.0,5.0,63,0.00,,,0.00,,2013-01-19 11:03:00,
2013-01-19 06:12:00,26.0,15.0,30.22,ESE,108,1.0,5.0,63,0.00,,,0.00,,2013-01-19 11:12:00,
2013-01-19 07:48:00,27.0,17.0,30.19,SE,125,1.0,3.0,65,0.00,,,0.00,,2013-01-19 12:48:00,
2013-01-19 08:03:00,28.0,18.0,30.18,WSW,250,0.0,6.0,65,0.00,,,0.00,,2013-01-19 13:03:00,
2013-01-19 08:13:00,28.0,18.0,30.18,WSW,250,0.0,6.0,65,0.00,,,0.00,,2013-01-19 13:13:00,
2013-01-19 08:23:00,29.0,18.0,30.18,SW,219,1.0,5.0,64,0.00,,,0.00,,2013-01-19 13:23:00,
2013-01-19 08:33:00,29.0,18.0,30.17,SE,124,1.0,4.0,64,0.00,,,0.00,,2013-01-19 13:33:00,
2013-01-19 08:43:00,29.0,18.0,30.17,SE,124,1.0,4.0,64,0.00,,,0.00,,2013-01-19 13:43:00,
2013-01-19 08:54:00,30.0,19.0,30.18,WSW,250,1.0,3.0,63,0.00,,,0.00,,2013-01-19 13:54:00,
2013-01-19 09:03:00,31.0,20.0,30.18,SSW,195,1.0,4.0,63,0.00,,,0.00,,2013-01-19 14:03:00,
2013-01-19 09:12:00,31.0,20.0,30.18,SSW,195,1.0,4.0,63,0.00,,,0.00,,2013-01-19 14:12:00,
2013-01-19 09:23:00,32.0,20.0,30.18,SSE,149,1.0,2.0,62,0.00,,,0.00,,2013-01-19 14:23:00,
2013-01-19 09:34:00,33.0,21.0,30.17,SE,124,0.0,2.0,61,0.00,,,0.00,,2013-01-19 14:34:00,
2013-01-19 09:43:00,33.0,21.0,30.17,SE,124,0.0,2.0,61,0.00,,,0.00,,2013-01-19 14:43:00,
2013-01-19 09:54:00,34.0,21.0,30.17,ESE,119,1.0,4.0,59,0.00,,,0.00,,2013-01-19 14:54:00,
2013-01-19 10:03:00,35.0,22.0,30.16,West,259,2.0,6.0,58,0.00,,,0.00,,2013-01-19 15:03:00,
2013-01-19 10:13:00,35.0,22.0,30.16,West,259,2.0,6.0,58,0.00,,,0.00,,2013-01-19 15:13:00,
2013-01-19 10:23:00,36.0,22.0,30.16,ESE,108,2.0,9.0,57,0.00,,,0.00,,2013-01-19 15:23:00,
2013-01-19 10:33:00,37.0,23.0,30.15,WSW,248,3.0,9.0,56,0.00,,,0.00,,2013-01-19 15:33:00,
2013-01-19 10:43:00,37.0,23.0,30.15,WSW,248,3.0,9.0,56,0.00,,,0.00,,2013-01-19 15:43:00,
2013-01-19 10:53:00,38.0,23.0,30.14,SE,137,2.0,6.0,54,0.00,,,0.00,,2013-01-19 15:53:00,
2013-01-19 11:03:00,39.0,24.0,30.13,SE,133,2.0,8.0,54,0.00,,,0.00,,2013-01-19 16:03:00,
2013-01-19 11:13:00,39.0,24.0,30.13,SE,133,2.0,8.0,54,0.00,,,0.00,,2013-01-19 16:13:00,
2013-01-19 11:23:00,40.0,24.0,30.12,SSE,162,2.0,6.0,53,0.00,,,0.00,,2013-01-19 16:23:00,
2013-01-19 11:33:00,40.0,23.0,30.10,ESE,118,3.0,10.0,51,0.00,,,0.00,,2013-01-19 16:33:00,
2013-01-19 11:43:00,40.0,23.0,30.10,ESE,118,3.0,10.0,51,0.00,,,0.00,,2013-01-19 16:43:00,
2013-01-19 11:54:00,40.0,23.0,30.09,NW,306,4.0,16.0,51,0.00,,,0.00,,2013-01-19 16:54:00,
2013-01-19 12:03:00,41.0,24.0,30.08,ESE,121,1.0,10.0,50,0.01,,,0.01,,2013-01-19 17:03:00,
2013-01-19 12:21:00,41.0,24.0,30.08,ESE,121,1.0,10.0,50,0.01,,,0.01,,2013-01-19 17:21:00,
2013-01-19 12:29:00,42.0,24.0,30.06,ESE,122,4.0,12.0,48,0.01,,,0.01,,2013-01-19 17:29:00,
2013-01-19 12:35:00,42.0,24.0,30.06,SSE,156,2.0,8.0,48,0.01,,,0.01,,2013-01-19 17:35:00,
2013-01-19 12:49:00,42.0,24.0,30.06,SSE,156,2.0,8.0,48,0.01,,,0.01,,2013-01-19 17:49:00,
2013-01-19 12:55:00,43.0,24.0,30.05,East,94,3.0,9.0,47,0.02,,,0.02,,2013-01-19 17:55:00,
2013-01-19 13:12:00,43.0,24.0,30.05,ESE,117,3.0,16.0,47,0.02,,,0.03,,2013-01-19 18:12:00,
2013-01-19 13:29:00,44.0,24.0,30.03,SSW,212,4.0,10.0,45,0.03,,,0.04,,2013-01-19 18:29:00,
2013-01-19 13:36:00,44.0,24.0,30.03,SE,141,3.0,11.0,45,0.04,,,0.05,,2013-01-19 18:36:00,
2013-01-19 13:45:00,44.0,24.0,30.03,SE,141,3.0,11.0,45,0.04,,,0.05,,2013-01-19 18:45:00,
2013-01-19 14:03:00,44.0,25.0,30.02,NW,309,2.0,7.0,46,0.04,,,0.06,,2013-01-19 19:03:00,
2013-01-19 14:09:00,44.0,25.0,30.02,WSW,239,2.0,9.0,46,0.04,,,0.07,,2013-01-19 19:09:00,
2013-01-19 14:31:00,44.0,25.0,30.01,East,100,2.0,11.0,46,0.04,,,0.08,,2013-01-19 19:31:00,
2013-01-19 14:39:00,44.0,25.0,30.01,ESE,110,2.0,8.0,46,0.04,,,0.09,,2013-01-19 19:39:00,
2013-01-19 14:47:00,44.0,25.0,30.01,ESE,110,2.0,8.0,46,0.04,,,0.09,,2013-01-19 19:47:00,
2013-01-19 14:59:00,44.0,26.0,30.00,East,100,2.0,4.0,48,0.03,,,0.10,,2013-01-19 19:59:00,
2013-01-19 15:10:00,44.0,25.0,30.00,SE,134,3.0,8.0,46,0.03,,,0.10,,2013-01-19 20:10:00,
2013-01-19 15:20:00,44.0,25.0,30.00,SE,134,3.0,8.0,46,0.03,,,0.10,,2013-01-19 20:20:00,
2013-01-19 15:26:00,45.0,25.0,30.01,WSW,243,1.0,4.0,45,0.03,,,0.11,,2013-01-19 20:26:00,
2013-01-19 15:49:00,45.0,25.0,30.00,SSE,159,1.0,5.0,45,0.02,,,0.11,,2013-01-19 20:49:00,
2013-01-19 15:59:00,45.0,25.0,30.00,WSW,255,1.0,6.0,46,0.02,,,0.12,,2013-01-19 20:59:00,
2013-01-19 16:15:00,45.0,26.0,30.00,West,276,1.0,4.0,47,0.02,,,0.12,,2013-01-19 21:15:00,
2013-01-19 16:28:00,44.0,25.0,30.00,SSE,160,1.0,5.0,47,0.02,,,0.13,,2013-01-19 21:28:00,
2013-01-19 16:45:00,44.0,25.0,29.99,SSE,162,2.0,7.0,47,0.02,,,0.13,,2013-01-19 21:45:00,
2013-01-19 17:01:00,43.0,25.0,29.99,SSE,153,1.0,5.0,49,0.02,,,0.14,,2013-01-19 22:01:00,
2013-01-19 17:15:00,43.0,26.0,30.00,ESE,121,2.0,5.0,50,0.02,,,0.14,,2013-01-19 22:15:00,
2013-01-19 17:28:00,42.0,25.0,30.00,WSW,246,1.0,4.0,51,0.01,,,0.14,,2013-01-19 22:28:00,
2013-01-19 17:35:00,42.0,25.0,30.00,WSW,246,1.0,4.0,51,0.01,,,0.14,,2013-01-19 22:35:00,
2013-01-19 17:48:00,42.0,25.0,30.00,WSW,246,1.0,4.0,51,0.01,,,0.14,,2013-01-19 22:48:00,
2013-01-19 17:58:00,41.0,27.0,30.00,NE,45,0.0,1.0,56,0.00,,,0.14,,2013-01-19 22:58:00,
2013-01-19 18:13:00,40.0,25.0,30.00,ESE,122,0.0,1.0,55,0.00,,,0.14,,2013-01-19 23:13:00,
2013-01-19 18:27:00,40.0,26.0,30.00,South,169,0.0,1.0,57,0.00,,,0.14,,2013-01-19 23:27:00,
2013-01-19 18:34:00,40.0,26.0,30.00,SW,225,0.0,1.0,58,0.00,,,0.14,,2013-01-19 23:34:00,
2013-01-19 18:47:00,40.0,26.0,30.00,SW,225,0.0,1.0,58,0.00,,,0.14,,2013-01-19 23:47:00,
2013-01-19 19:08:00,40.0,26.0,30.00,WSW,243,1.0,2.0,58,0.00,,,0.14,,2013-01-20 00:08:00,
2013-01-19 19:16:00,39.0,26.0,30.00,SSE,160,0.0,1.0,59,0.00,,,0.14,,2013-01-20 00:16:00,
2013-01-19 19:26:00,39.0,26.0,30.00,WNW,295,0.0,2.0,60,0.00,,,0.14,,2013-01-20 00:26:00,
2013-01-19 19:35:00,38.0,26.0,30.00,SE,146,0.0,1.0,61,0.00,,,0.14,,2013-01-20 00:35:00,
2013-01-19 19:47:00,38.0,26.0,30.00,SE,146,0.0,1.0,61,0.00,,,0.14,,2013-01-20 00:47:00,
2013-01-19 19:58:00,38.0,26.0,30.00,SE,128,0.0,1.0,62,0.00,,,0.14,,2013-01-20 00:58:00,
2013-01-19 20:04:00,38.0,26.0,29.99,ESE,105,0.0,1.0,62,0.00,,,0.14,,2013-01-20 01:04:00,
2013-01-19 20:21:00,38.0,26.0,29.99,ESE,105,0.0,1.0,62,0.00,,,0.14,,2013-01-20 01:21:00,
2013-01-19 20:28:00,37.0,26.0,29.99,ESE,105,0.0,1.0,63,0.00,,,0.14,,2013-01-20 01:28:00,
2013-01-19 20:37:00,37.0,26.0,29.99,SE,124,0.0,1.0,64,0.00,,,0.14,,2013-01-20 01:37:00,
2013-01-19 21:04:00,36.0,26.0,29.98,SE,124,0.0,0.0,67,0.00,,,0.14,,2013-01-20 02:04:00,
2013-01-19 21:15:00,36.0,26.0,29.98,SE,124,0.0,0.0,67,0.00,,,0.14,,2013-01-20 02:15:00,
2013-01-19 21:27:00,35.0,27.0,29.97,SE,124,0.0,0.0,71,0.00,,,0.14,,2013-01-20 02:27:00,
2013-01-19 21:36:00,34.0,26.0,29.97,SE,124,0.0,1.0,71,0.00,,,0.14,,2013-01-20 02:36:00,
2013-01-19 21:45:00,34.0,26.0,29.97,SE,124,0.0,1.0,71,0.00,,,0.14,,2013-01-20 02:45:00,
2013-01-19 21:59:00,33.0,26.0,29.96,SE,124,0.0,0.0,75,0.00,,,0.14,,2013-01-20 02:59:00,
2013-01-19 22:08:00,33.0,26.0,29.95,SE,124,0.0,1.0,76,0.00,,,0.14,,2013-01-20 03:08:00,
2013-01-19 22:15:00,33.0,26.0,29.95,SE,124,0.0,1.0,76,0.00,,,0.14,,2013-01-20 03:15:00,
2013-01-19 22:25:00,32.0,26.0,29.94,NE,48,0.0,1.0,77,0.00,,,0.14,,2013-01-20 03:25:00,
2013-01-19 22:38:00,32.0,26.0,29.94,NE,49,0.0,1.0,78,0.00,,,0.14,,2013-01-20 03:38:00,
2013-01-19 22:45:00,32.0,26.0,29.94,NE,49,0.0,1.0,78,0.00,,,0.14,,2013-01-20 03:45:00,
2013-01-19 22:58:00,32.0,26.0,29.93,North,356,0.0,1.0,79,0.00,,,0.14,,2013-01-20 03:58:00,
2013-01-19 23:05:00,32.0,27.0,29.92,North,359,0.0,1.0,80,0.00,,,0.14,,2013-01-20 04:05:00,
2013-01-19 23:15:00,32.0,27.0,29.92,North,359,0.0,1.0,80,0.00,,,0.14,,2013-01-20 04:15:00,
2013-01-19 23:36:00,32.0,27.0,29.90,North,359,0.0,1.0,82,0.00,,,0.14,,2013-01-20 04:36:00,
2013-01-19 23:45:00,32.0,27.0,29.90,North,359,0.0,1.0,82,0.00,,,0.14,,2013-01-20 04:45:00,
2013-01-19 23:58:00,33.0,28.0,29.89,North,356,0.0,1.0,83,0.00,,,0.14,,2013-01-20 04:58:00,